Location: *
(45.5667°S, 177.5167°W)
Time: 01:03:58
(UTC+00:00)

ISS - Visible Passes

Search period start: 13 August 2022 00:00
Search period end: 23 August 2022 00:00
Orbit: 412 x 420 km, 51.6° (Epoch: 12 August)

Date Brightness Start Highest point End Pass type
(mag) Time Alt. Az. Time Alt. Az. Time Alt. Az.
17 Aug -2.1 06:42:59 10° NNW 06:44:56 22° NNE 06:44:56 22° NNE visible
18 Aug -1.8 05:55:19 10° N 05:57:25 16° NE 05:58:49 13° ENE visible
18 Aug -1.5 07:30:20 10° WNW 07:31:44 23° WNW 07:31:44 23° WNW visible
19 Aug -3.7 06:41:49 10° NW 06:45:10 60° NE 06:45:30 56° ENE visible
20 Aug -2.9 05:53:29 10° NNW 05:56:38 37° NE 05:59:10 14° ESE visible
20 Aug -1.8 07:30:01 10° W 07:32:04 30° WSW 07:32:04 30° WSW visible
21 Aug -3.5 06:41:15 10° WNW 06:44:39 64° SSW 06:45:38 41° SE visible
22 Aug -3.7 05:52:35 10° WNW 05:55:59 86° NNE 05:59:08 12° ESE visible
22 Aug -1.7 07:29:53 10° WSW 07:32:01 27° SW 07:32:01 27° SW visible
